Time,TemperatureF,DewpointF,PressureIn,WindDirection,WindDirectionDegrees,WindSpeedMPH,WindSpeedGustMPH,Humidity,HourlyPrecipIn,Conditions,Clouds,dailyrainin,SoftwareType,DateUTC
2013-05-24 00:03:00,60.0,58.0,29.93,WNW,302,2.0,5.0,92,0.00,,,0.08,,2013-05-24 04:03:00,
2013-05-24 00:12:00,60.0,58.0,29.93,WNW,302,2.0,5.0,92,0.00,,,0.08,,2013-05-24 04:12:00,
2013-05-24 00:23:00,60.0,58.0,29.93,WNW,302,2.0,5.0,92,0.00,,,0.08,,2013-05-24 04:23:00,
2013-05-24 00:33:00,59.0,57.0,29.94,WNW,295,0.0,3.0,92,0.00,,,0.06,,2013-05-24 04:33:00,
2013-05-24 00:42:00,59.0,57.0,29.94,WNW,295,0.0,3.0,92,0.00,,,0.06,,2013-05-24 04:42:00,
2013-05-24 00:53:00,59.0,57.0,29.94,WNW,295,0.0,3.0,92,0.00,,,0.06,,2013-05-24 04:53:00,
2013-05-24 01:02:00,58.0,56.0,29.94,WNW,302,0.0,4.0,93,0.00,,,0.06,,2013-05-24 05:02:00,
2013-05-24 01:12:00,58.0,56.0,29.94,WNW,302,0.0,4.0,93,0.00,,,0.06,,2013-05-24 05:12:00,
2013-05-24 01:22:00,58.0,56.0,29.94,WNW,302,0.0,4.0,93,0.00,,,0.06,,2013-05-24 05:22:00,
2013-05-24 01:32:00,58.0,55.0,29.94,WNW,302,0.0,3.0,91,0.00,,,0.06,,2013-05-24 05:32:00,
2013-05-24 01:42:00,58.0,55.0,29.94,WNW,302,0.0,3.0,91,0.00,,,0.06,,2013-05-24 05:42:00,
2013-05-24 01:52:00,58.0,55.0,29.94,WNW,302,0.0,3.0,91,0.00,,,0.06,,2013-05-24 05:52:00,
2013-05-24 02:02:00,57.0,53.0,29.93,North,356,0.0,0.0,87,0.00,,,0.06,,2013-05-24 06:02:00,
2013-05-24 02:12:00,57.0,53.0,29.93,North,356,0.0,0.0,87,0.00,,,0.06,,2013-05-24 06:12:00,
2013-05-24 02:21:00,57.0,53.0,29.93,North,356,0.0,0.0,87,0.00,,,0.06,,2013-05-24 06:21:00,
2013-05-24 02:32:00,57.0,54.0,29.94,North,354,0.0,2.0,90,0.00,,,0.06,,2013-05-24 06:32:00,
2013-05-24 02:42:00,57.0,54.0,29.94,North,354,0.0,2.0,90,0.00,,,0.06,,2013-05-24 06:42:00,
2013-05-24 02:52:00,57.0,54.0,29.94,North,354,0.0,2.0,90,0.00,,,0.06,,2013-05-24 06:52:00,
2013-05-24 03:02:00,57.0,54.0,29.94,North,354,0.0,2.0,90,0.00,,,0.06,,2013-05-24 07:02:00,
2013-05-24 03:11:00,57.0,54.0,29.94,North,354,0.0,2.0,90,0.00,,,0.06,,2013-05-24 07:11:00,
2013-05-24 03:32:00,55.0,52.0,29.93,NNW,333,0.0,2.0,89,0.00,,,0.06,,2013-05-24 07:32:00,
2013-05-24 03:42:00,55.0,52.0,29.93,NNW,333,0.0,2.0,89,0.00,,,0.06,,2013-05-24 07:42:00,
2013-05-24 03:52:00,55.0,52.0,29.93,NNW,333,0.0,2.0,89,0.00,,,0.06,,2013-05-24 07:52:00,
2013-05-24 04:02:00,56.0,52.0,29.92,South,171,0.0,7.0,87,0.00,,,0.06,,2013-05-24 08:02:00,
2013-05-24 04:11:00,56.0,52.0,29.92,South,171,0.0,7.0,87,0.00,,,0.06,,2013-05-24 08:11:00,
2013-05-24 04:22:00,56.0,52.0,29.92,South,171,0.0,7.0,87,0.00,,,0.06,,2013-05-24 08:22:00,
2013-05-24 04:33:00,56.0,52.0,29.93,WNW,299,1.0,5.0,87,0.00,,,0.06,,2013-05-24 08:33:00,
2013-05-24 04:42:00,56.0,52.0,29.93,WNW,299,1.0,5.0,87,0.00,,,0.06,,2013-05-24 08:42:00,
2013-05-24 04:52:00,56.0,52.0,29.93,WNW,299,1.0,5.0,87,0.00,,,0.06,,2013-05-24 08:52:00,
2013-05-24 05:02:00,55.0,52.0,29.92,NW,309,2.0,5.0,90,0.00,,,0.06,,2013-05-24 09:02:00,
2013-05-24 05:11:00,55.0,52.0,29.92,NW,309,2.0,5.0,90,0.00,,,0.06,,2013-05-24 09:11:00,
2013-05-24 05:22:00,55.0,52.0,29.92,NW,309,2.0,5.0,90,0.00,,,0.06,,2013-05-24 09:22:00,
2013-05-24 05:32:00,55.0,52.0,29.91,NW,311,0.0,5.0,88,0.00,,,0.06,,2013-05-24 09:32:00,
2013-05-24 05:42:00,55.0,52.0,29.91,NW,311,0.0,5.0,88,0.00,,,0.06,,2013-05-24 09:42:00,
2013-05-24 05:53:00,55.0,52.0,29.91,NW,311,0.0,5.0,88,0.00,,,0.06,,2013-05-24 09:53:00,
2013-05-24 06:03:00,56.0,50.0,29.91,SE,138,5.0,5.0,81,0.00,,,0.06,,2013-05-24 10:03:00,
2013-05-24 06:12:00,56.0,50.0,29.91,SE,138,5.0,5.0,81,0.00,,,0.06,,2013-05-24 10:12:00,
2013-05-24 06:23:00,56.0,50.0,29.91,SE,138,5.0,5.0,81,0.00,,,0.06,,2013-05-24 10:23:00,
2013-05-24 06:33:00,55.0,52.0,29.93,WNW,285,6.0,12.0,88,0.00,,,0.05,,2013-05-24 10:33:00,
2013-05-24 06:42:00,55.0,52.0,29.93,WNW,285,6.0,12.0,88,0.00,,,0.05,,2013-05-24 10:42:00,
2013-05-24 06:53:00,55.0,52.0,29.93,WNW,285,6.0,12.0,88,0.00,,,0.05,,2013-05-24 10:53:00,
2013-05-24 07:02:00,55.0,53.0,29.96,NW,311,1.0,3.0,93,0.00,,,0.05,,2013-05-24 11:02:00,
2013-05-24 07:12:00,55.0,53.0,29.96,NW,311,1.0,3.0,93,0.00,,,0.05,,2013-05-24 11:12:00,
2013-05-24 07:22:00,55.0,53.0,29.96,NW,311,1.0,3.0,93,0.00,,,0.05,,2013-05-24 11:22:00,
2013-05-24 07:32:00,55.0,53.0,29.98,NW,304,0.0,0.0,93,0.00,,,0.05,,2013-05-24 11:32:00,
2013-05-24 07:42:00,55.0,53.0,29.98,NW,304,0.0,0.0,93,0.00,,,0.05,,2013-05-24 11:42:00,
2013-05-24 07:52:00,55.0,53.0,29.98,NW,304,0.0,0.0,93,0.00,,,0.05,,2013-05-24 11:52:00,
2013-05-24 08:02:00,55.0,52.0,29.99,NW,304,2.0,3.0,91,0.00,,,0.05,,2013-05-24 12:02:00,
2013-05-24 08:11:00,55.0,52.0,29.99,NW,304,2.0,3.0,91,0.00,,,0.05,,2013-05-24 12:11:00,
2013-05-24 08:22:00,55.0,52.0,29.99,NW,304,2.0,3.0,91,0.00,,,0.05,,2013-05-24 12:22:00,
2013-05-24 08:32:00,56.0,52.0,30.00,WNW,301,0.0,2.0,87,0.00,,,0.00,,2013-05-24 12:32:00,
2013-05-24 08:42:00,56.0,52.0,30.00,WNW,301,0.0,2.0,87,0.00,,,0.00,,2013-05-24 12:42:00,
2013-05-24 08:52:00,56.0,52.0,30.00,WNW,301,0.0,2.0,87,0.00,,,0.00,,2013-05-24 12:52:00,
2013-05-24 09:02:00,57.0,53.0,30.01,NW,319,0.0,3.0,86,0.00,,,0.00,,2013-05-24 13:02:00,
2013-05-24 09:11:00,57.0,53.0,30.01,NW,319,0.0,3.0,86,0.00,,,0.00,,2013-05-24 13:11:00,
2013-05-24 09:22:00,57.0,53.0,30.01,NW,319,0.0,3.0,86,0.00,,,0.00,,2013-05-24 13:22:00,
2013-05-24 09:32:00,58.0,54.0,30.03,NW,312,2.0,5.0,86,0.00,,,0.00,,2013-05-24 13:32:00,
2013-05-24 09:42:00,58.0,54.0,30.03,NW,312,2.0,5.0,86,0.00,,,0.00,,2013-05-24 13:42:00,
2013-05-24 09:52:00,58.0,54.0,30.03,NW,312,2.0,5.0,86,0.00,,,0.00,,2013-05-24 13:52:00,
2013-05-24 10:02:00,58.0,52.0,30.04,NW,323,0.0,6.0,81,0.00,,,0.00,,2013-05-24 14:02:00,
2013-05-24 10:11:00,58.0,52.0,30.04,NW,323,0.0,6.0,81,0.00,,,0.00,,2013-05-24 14:11:00,
2013-05-24 10:22:00,58.0,52.0,30.04,NW,323,0.0,6.0,81,0.00,,,0.00,,2013-05-24 14:22:00,
2013-05-24 10:32:00,59.0,51.0,30.06,NW,315,1.0,6.0,76,0.00,,,0.00,,2013-05-24 14:32:00,
2013-05-24 10:42:00,59.0,51.0,30.06,NW,315,1.0,6.0,76,0.00,,,0.00,,2013-05-24 14:42:00,
2013-05-24 10:52:00,59.0,51.0,30.06,NW,315,1.0,6.0,76,0.00,,,0.00,,2013-05-24 14:52:00,
2013-05-24 11:02:00,60.0,52.0,30.06,WNW,292,4.0,7.0,74,0.00,,,0.00,,2013-05-24 15:02:00,
2013-05-24 11:11:00,60.0,52.0,30.06,WNW,292,4.0,7.0,74,0.00,,,0.00,,2013-05-24 15:11:00,
2013-05-24 11:22:00,60.0,52.0,30.06,WNW,292,4.0,7.0,74,0.00,,,0.00,,2013-05-24 15:22:00,
2013-05-24 11:33:00,63.0,52.0,30.08,WNW,294,2.0,8.0,68,0.00,,,0.00,,2013-05-24 15:33:00,
2013-05-24 11:43:00,63.0,52.0,30.08,WNW,294,2.0,8.0,68,0.00,,,0.00,,2013-05-24 15:43:00,
2013-05-24 11:53:00,63.0,52.0,30.08,WNW,294,2.0,8.0,68,0.00,,,0.00,,2013-05-24 15:53:00,
2013-05-24 12:03:00,65.0,49.0,30.09,WNW,295,2.0,4.0,57,0.00,,,0.00,,2013-05-24 16:03:00,
2013-05-24 12:12:00,65.0,49.0,30.09,WNW,295,2.0,4.0,57,0.00,,,0.00,,2013-05-24 16:12:00,
2013-05-24 12:22:00,65.0,49.0,30.09,WNW,295,2.0,4.0,57,0.00,,,0.00,,2013-05-24 16:22:00,
2013-05-24 12:32:00,67.0,49.0,30.09,NNW,335,2.0,6.0,52,0.00,,,0.00,,2013-05-24 16:32:00,
2013-05-24 12:42:00,67.0,49.0,30.09,NNW,335,2.0,6.0,52,0.00,,,0.00,,2013-05-24 16:42:00,
2013-05-24 12:52:00,67.0,49.0,30.09,NNW,335,2.0,6.0,52,0.00,,,0.00,,2013-05-24 16:52:00,
2013-05-24 13:02:00,67.0,52.0,30.09,NW,305,3.0,7.0,59,0.00,,,0.00,,2013-05-24 17:02:00,
2013-05-24 13:12:00,67.0,52.0,30.09,NW,305,3.0,7.0,59,0.00,,,0.00,,2013-05-24 17:12:00,
2013-05-24 13:22:00,67.0,52.0,30.09,NW,305,3.0,7.0,59,0.00,,,0.00,,2013-05-24 17:22:00,
2013-05-24 13:32:00,69.0,47.0,30.10,WNW,296,2.0,7.0,46,0.00,,,0.00,,2013-05-24 17:32:00,
2013-05-24 13:42:00,69.0,47.0,30.10,WNW,296,2.0,7.0,46,0.00,,,0.00,,2013-05-24 17:42:00,
2013-05-24 13:52:00,69.0,47.0,30.10,WNW,296,2.0,7.0,46,0.00,,,0.00,,2013-05-24 17:52:00,
2013-05-24 14:01:00,69.0,47.0,30.10,WNW,296,2.0,7.0,46,0.00,,,0.00,,2013-05-24 18:01:00,
2013-05-24 14:32:00,71.0,50.0,30.10,NW,313,3.0,5.0,47,0.00,,,0.00,,2013-05-24 18:32:00,
2013-05-24 14:42:00,71.0,50.0,30.10,NW,313,3.0,5.0,47,0.00,,,0.00,,2013-05-24 18:42:00,
2013-05-24 14:52:00,71.0,50.0,30.10,NW,313,3.0,5.0,47,0.00,,,0.00,,2013-05-24 18:52:00,
2013-05-24 15:01:00,69.0,49.0,30.09,NW,311,3.0,6.0,49,0.00,,,0.00,,2013-05-24 19:01:00,
2013-05-24 15:11:00,69.0,49.0,30.09,NW,311,3.0,6.0,49,0.00,,,0.00,,2013-05-24 19:11:00,
2013-05-24 15:21:00,69.0,49.0,30.09,NW,311,3.0,6.0,49,0.00,,,0.00,,2013-05-24 19:21:00,
2013-05-24 15:32:00,68.0,48.0,30.11,NNW,336,3.0,5.0,48,0.00,,,0.00,,2013-05-24 19:32:00,
2013-05-24 15:42:00,68.0,48.0,30.11,NNW,336,3.0,5.0,48,0.00,,,0.00,,2013-05-24 19:42:00,
2013-05-24 15:52:00,68.0,48.0,30.11,NNW,336,3.0,5.0,48,0.00,,,0.00,,2013-05-24 19:52:00,
2013-05-24 16:02:00,66.0,45.0,30.12,NW,326,1.0,8.0,46,0.00,,,0.00,,2013-05-24 20:02:00,
2013-05-24 16:12:00,66.0,45.0,30.12,NW,326,1.0,8.0,46,0.00,,,0.00,,2013-05-24 20:12:00,
2013-05-24 16:22:00,66.0,45.0,30.12,NW,326,1.0,8.0,46,0.00,,,0.00,,2013-05-24 20:22:00,
2013-05-24 16:32:00,64.0,43.0,30.10,NW,304,3.0,7.0,46,0.00,,,0.00,,2013-05-24 20:32:00,
2013-05-24 16:42:00,64.0,43.0,30.10,NW,304,3.0,7.0,46,0.00,,,0.00,,2013-05-24 20:42:00,
2013-05-24 16:52:00,64.0,43.0,30.10,NW,304,3.0,7.0,46,0.00,,,0.00,,2013-05-24 20:52:00,
2013-05-24 17:01:00,63.0,43.0,30.11,WNW,282,3.0,8.0,48,0.00,,,0.00,,2013-05-24 21:01:00,
2013-05-24 17:11:00,63.0,43.0,30.11,WNW,282,3.0,8.0,48,0.00,,,0.00,,2013-05-24 21:11:00,
2013-05-24 17:22:00,63.0,43.0,30.11,WNW,282,3.0,8.0,48,0.00,,,0.00,,2013-05-24 21:22:00,
2013-05-24 17:33:00,63.0,44.0,30.11,NNW,333,2.0,7.0,49,0.00,,,0.00,,2013-05-24 21:33:00,
2013-05-24 17:42:00,63.0,44.0,30.11,NNW,333,2.0,7.0,49,0.00,,,0.00,,2013-05-24 21:42:00,
2013-05-24 17:53:00,63.0,44.0,30.11,NNW,333,2.0,7.0,49,0.00,,,0.00,,2013-05-24 21:53:00,
2013-05-24 18:03:00,62.0,43.0,30.11,NW,325,2.0,5.0,49,0.00,,,0.00,,2013-05-24 22:03:00,
2013-05-24 18:12:00,62.0,43.0,30.11,NW,325,2.0,5.0,49,0.00,,,0.00,,2013-05-24 22:12:00,
2013-05-24 18:22:00,62.0,43.0,30.11,NW,325,2.0,5.0,49,0.00,,,0.00,,2013-05-24 22:22:00,
2013-05-24 18:33:00,61.0,42.0,30.11,NNW,344,3.0,6.0,50,0.00,,,0.00,,2013-05-24 22:33:00,
2013-05-24 18:42:00,61.0,42.0,30.11,NNW,344,3.0,6.0,50,0.00,,,0.00,,2013-05-24 22:42:00,
2013-05-24 18:52:00,61.0,42.0,30.11,NNW,344,3.0,6.0,50,0.00,,,0.00,,2013-05-24 22:52:00,
2013-05-24 19:02:00,61.0,42.0,30.11,NNW,344,3.0,6.0,50,0.00,,,0.00,,2013-05-24 23:02:00,
2013-05-24 19:11:00,61.0,42.0,30.11,NNW,344,3.0,6.0,50,0.00,,,0.00,,2013-05-24 23:11:00,
2013-05-24 19:32:00,59.0,41.0,30.13,WNW,298,2.0,5.0,52,0.00,,,0.00,,2013-05-24 23:32:00,
2013-05-24 19:42:00,59.0,41.0,30.13,WNW,298,2.0,5.0,52,0.00,,,0.00,,2013-05-24 23:42:00,
2013-05-24 19:52:00,59.0,41.0,30.13,WNW,298,2.0,5.0,52,0.00,,,0.00,,2013-05-24 23:52:00,
2013-05-24 20:01:00,58.0,42.0,30.14,NW,322,0.0,4.0,56,0.00,,,0.00,,2013-05-25 00:01:00,
2013-05-24 20:12:00,58.0,42.0,30.14,NW,322,0.0,4.0,56,0.00,,,0.00,,2013-05-25 00:12:00,
2013-05-24 20:22:00,58.0,42.0,30.14,NW,322,0.0,4.0,56,0.00,,,0.00,,2013-05-25 00:22:00,
2013-05-24 20:32:00,57.0,44.0,30.14,NW,316,1.0,3.0,62,0.00,,,0.00,,2013-05-25 00:32:00,
2013-05-24 20:42:00,57.0,44.0,30.14,NW,316,1.0,3.0,62,0.00,,,0.00,,2013-05-25 00:42:00,
2013-05-24 20:52:00,57.0,44.0,30.14,NW,316,1.0,3.0,62,0.00,,,0.00,,2013-05-25 00:52:00,
2013-05-24 21:01:00,56.0,43.0,30.16,WNW,294,0.0,5.0,62,0.00,,,0.00,,2013-05-25 01:01:00,
2013-05-24 21:11:00,56.0,43.0,30.16,WNW,294,0.0,5.0,62,0.00,,,0.00,,2013-05-25 01:11:00,
2013-05-24 21:22:00,56.0,43.0,30.16,WNW,294,0.0,5.0,62,0.00,,,0.00,,2013-05-25 01:22:00,
2013-05-24 21:32:00,55.0,43.0,30.16,NW,319,0.0,4.0,65,0.00,,,0.00,,2013-05-25 01:32:00,
2013-05-24 21:42:00,55.0,43.0,30.16,NW,319,0.0,4.0,65,0.00,,,0.00,,2013-05-25 01:42:00,
2013-05-24 21:52:00,55.0,43.0,30.16,NW,319,0.0,4.0,65,0.00,,,0.00,,2013-05-25 01:52:00,
2013-05-24 22:02:00,54.0,41.0,30.17,NNW,339,0.0,3.0,61,0.00,,,0.00,,2013-05-25 02:02:00,
2013-05-24 22:12:00,54.0,41.0,30.17,NNW,339,0.0,3.0,61,0.00,,,0.00,,2013-05-25 02:12:00,
2013-05-24 22:22:00,54.0,41.0,30.17,NNW,339,0.0,3.0,61,0.00,,,0.00,,2013-05-25 02:22:00,
2013-05-24 22:32:00,54.0,42.0,30.17,NW,308,0.0,4.0,64,0.00,,,0.00,,2013-05-25 02:32:00,
2013-05-24 22:42:00,54.0,42.0,30.17,NW,308,0.0,4.0,64,0.00,,,0.00,,2013-05-25 02:42:00,
2013-05-24 22:52:00,54.0,42.0,30.17,NW,308,0.0,4.0,64,0.00,,,0.00,,2013-05-25 02:52:00,
2013-05-24 23:02:00,53.0,42.0,30.18,NNW,328,0.0,2.0,66,0.00,,,0.00,,2013-05-25 03:02:00,
2013-05-24 23:11:00,53.0,42.0,30.18,NNW,328,0.0,2.0,66,0.00,,,0.00,,2013-05-25 03:11:00,
2013-05-24 23:22:00,53.0,42.0,30.18,NNW,328,0.0,2.0,66,0.00,,,0.00,,2013-05-25 03:22:00,
2013-05-24 23:32:00,53.0,43.0,30.19,NNW,328,0.0,2.0,69,0.00,,,0.00,,2013-05-25 03:32:00,
2013-05-24 23:43:00,53.0,43.0,30.19,NNW,328,0.0,2.0,69,0.00,,,0.00,,2013-05-25 03:43:00,
2013-05-24 23:53:00,53.0,43.0,30.19,NNW,328,0.0,2.0,69,0.00,,,0.00,,2013-05-25 03:53:00,